Wind_Speed
118 113 100 96 90 81 72 66 61 59 54 51 48 45 41 39 36 36 34 34 38 45 43 46 48 51 56 60 67 72 84 99 103 101 97 94 90 87 81 75 75 73 70 68 68 64 64 65 70 81 88 93 96 95
103 96 86 81 73 66 61 57 52 49 47 46 43 39 36 34 31 30 28 29 32 36 31 38 43 46 49 52 56 61 68 84 96 97 92 89 86 79 76 74 74 75 70 70 66 62 57 61 69 72 80 81 90 96
89 81 74 69 64 58 53 49 46 45 43 41 36 33 30 28 26 24 23 24 27 25 30 35 38 42 46 50 54 60 65 73 86 92 86 85 83 80 72 75 75 71 68 69 73 62 56 56 61 64 66 70 77 88
77 69 63 58 54 50 47 44 42 39 35 31 27 25 22 20 18 17 16 17 20 23 27 30 32 36 41 47 51 53 55 65 80 85 83 81 80 75 69 69 67 63 67 64 66 64 52 51 54 56 60 64 70 78
65 59 54 50 47 43 39 36 33 29 26 22 19 17 15 12 10 11 12 15 19 21 23 26 32 35 40 45 47 49 54 62 75 81 79 79 75 74 72 67 62 62 61 65 62 58 44 42 43 45 49 60 66 70
61 55 50 46 41 36 32 28 25 22 18 16 12 7 3 5 8 10 13 15 18 21 26 30 31 34 38 40 43 45 52 62 72 78 79 71 72 75 71 71 67 62 59 54 48 41 49 37 35 35 39 47 56 67
57 50 46 41 36 31 26 23 20 16 12 9 6 3 2 6 9 12 14 17 20 24 27 30 32 34 37 39 42 48 53 62 69 76 75 76 72 77 74 65 63 68 67 59 37 40 56 34 26 31 39 38 40 45
51 46 41 37 31 27 22 18 14 11 10 8 7 5 5 8 11 14 18 22 24 27 30 33 35 36 37 41 46 50 59 64 67 71 72 76 73 72 67 64 61 60 60 51 40 38 52 48 37 24 27 37 41 38
47 42 37 33 28 24 19 15 13 11 10 10 10 10 10 12 15 18 21 25 28 32 32 36 37 40 42 46 53 58 60 65 67 68 73 73 72 64 62 63 62 57 50 41 36 37 51 54 52 46 59 56 45 35
44 37 33 31 27 22 19 17 14 13 12 13 12 12 12 14 17 19 24 24 27 29 36 39 41 47 50 53 56 58 61 63 63 59 58 55 60 62 62 63 62 47 45 47 56 50 58 58 55 64 54 57 50 49
40 35 31 28 26 22 20 17 16 14 14 14 14 15 15 17 19 21 25 28 31 34 37 43 50 56 62 67 68 67 60 58 61 60 60 61 57 57 59 62 50 43 49 57 68 60 67 62 57 65 62 61 55 55
37 33 30 29 26 23 20 18 17 16 15 15 16 17 18 20 22 24 25 25 29 35 40 46 54 60 69 73 69 63 59 57 67 64 59 56 59 61 57 41 42 48 54 62 80 77 72 77 56 76 76 70 59 60
35 32 30 29 28 26 23 22 21 19 16 17 19 20 21 22 22 23 27 29 32 34 40 45 55 67 73 70 72 67 57 56 52 54 63 57 61 58 58 53 44 45 53 58 73 76 76 76 73 64 65 64 75 72
33 30 27 26 25 23 24 22 22 21 20 16 19 22 23 23 23 23 26 30 34 35 39 49 59 72 74 72 70 70 63 56 58 55 54 56 54 56 59 57 54 55 52 58 63 77 82 82 83 78 80 77 77 74
31 28 28 26 22 21 21 22 24 22 20 19 17 19 24 25 27 26 25 24 27 34 42 49 56 62 67 68 67 68 62 59 53 59 58 61 58 57 58 59 58 61 54 51 54 56 66 79 77 68 75 77 74 80
30 27 25 24 24 24 21 22 19 16 20 23 19 18 22 25 27 26 26 27 28 32 33 36 44 51 55 63 66 65 68 68 62 54 48 48 50 49 55 65 65 60 56 58 59 57 58 64 79 85 84 87 79 75
28 26 25 24 23 24 23 22 17 15 21 22 20 19 21 23 25 26 27 28 28 28 29 32 35 39 42 51 59 56 52 52 57 56 59 62 58 52 51 56 59 61 59 63 60 60 65 64 61 65 83 98 91 87
29 26 25 24 24 24 23 21 20 21 21 22 21 20 20 21 24 26 28 28 27 28 28 29 30 32 35 39 44 54 50 47 39 38 42 47 55 54 53 57 62 64 62 64 65 67 61 59 60 60 54 50 56 62
31 28 27 25 25 25 22 22 22 23 22 22 21 20 20 22 24 25 26 25 25 27 26 24 24 25 28 29 31 36 37 42 41 36 38 43 47 53 55 55 58 56 58 64 66 58 62 64 59 60 60 58 58 59
33 30 28 27 27 26 25 24 23 24 24 23 23 23 22 22 22 22 21 22 22 23 24 23 21 22 23 25 26 28 32 35 37 40 39 40 43 47 55 60 61 61 60 63 62 66 70 69 65 68 68 67 67 67
36 34 31 30 29 29 28 27 25 25 26 26 25 24 23 22 21 20 18 19 19 18 18 19 20 21 23 24 26 27 30 32 33 34 32 32 33 37 42 48 55 59 64 68 68 69 72 74 72 73 70 68 63 62
41 39 35 33 32 30 30 29 29 28 27 27 26 25 24 22 21 19 17 17 17 17 16 15 15 15 16 17 19 20 21 23 24 26 29 32 33 37 39 41 44 52 61 66 63 62 61 62 65 68 73 75 78 78
39 41 42 39 36 34 32 30 29 28 27 26 24 23 22 21 19 18 18 17 17 18 17 16 15 15 15 16 17 17 18 22 25 26 28 31 35 39 42 45 47 49 52 57 61 63 65 66 69 71 73 73 73 75
32 38 40 39 40 40 38 36 33 31 28 24 22 21 21 19 18 16 15 14 14 13 15 17 19 21 21 22 24 26 26 27 29 31 33 35 37 39 42 45 49 53 56 59 62 63 64 66 67 68 70 71 72 75
32 31 31 32 34 35 36 35 35 34 31 29 28 24 19 15 12 10 8 7 7 9 11 13 16 18 20 22 24 26 27 29 31 33 35 37 39 41 43 45 47 49 51 54 55 57 59 61 63 64 66 66 67 67
26 25 25 26 27 28 28 28 28 27 27 27 26 25 21 18 15 12 9 6 3 2 5 7 11 14 18 21 24 27 30 31 33 34 36 37 40 41 43 45 47 48 50 51 52 54 55 56 57 58 60 60 60 60
22 22 23 23 22 23 23 23 23 22 21 20 18 17 16 15 14 13 12 12 11 10 11 12 14 15 17 19 22 24 26 27 29 31 33 35 37 38 40 42 45 46 46 48 50 51 53 53 54 55 56 56 56 55
22 22 22 22 21 21 20 19 18 17 17 18 19 20 18 17 18 18 19 19 19 19 19 19 21 24 26 29 30 32 34 35 36 38 39 40 42 43 45 45 47 49 51 52 55 55 57 58 59 60 59 61 62 63
22 21 20 20 20 19 19 18 19 20 20 21 22 22 22 20 20 20 20 21 22 22 22 24 29 33 35 38 39 40 42 42 45 47 48 49 50 50 52 54 55 56 57 56 54 57 57 56 56 57 58 59 59 59
25 23 24 24 24 24 24 24 24 25 25 24 24 23 21 21 20 21 21 22 22 23 22 24 29 33 37 40 41 42 44 46 46 46 47 50 51 53 55 56 56 57 56 57 57 55 54 58 58 58 58 59 58 57
26 27 29 29 28 27 26 25 24 24 24 23 20 18 22 25 27 26 26 26 27 27 27 29 30 30 29 32 35 36 39 43 46 46 47 48 50 52 55 56 58 59 58 57 57 57 57 57 58 57 56 55 55 56
35 33 31 30 29 28 28 27 26 26 26 26 26 25 25 26 28 27 28 29 30 32 33 34 34 35 35 36 37 38 39 40 39 39 40 41 42 43 45 46 47 48 49 50 51 51 52 52 52 51 51 50 50 50
36 36 34 31 30 29 30 31 32 31 30 31 33 33 33 33 33 33 32 32 31 32 35 36 37 38 39 38 37 36 35 35 36 35 35 37 38 40 40 40 41 42 42 42 43 43 43 43 42 42 41 40 39 38
Wind_Direction
315 311 306 304 305 303 304 304 303 301 299 298 296 293 290 285 278 272 265 255 248 245 241 237 233 230 227 225 225 224 223 221 219 219 220 223 226 229 230 228 228 233 233 235 234 235 240 244 242 234 234 231 228 229
314 311 309 308 307 308 310 306 303 302 300 297 295 293 288 283 276 270 263 254 246 243 234 230 225 223 222 222 222 220 219 217 217 216 217 220 222 225 226 226 225 229 233 234 237 240 238 242 242 240 233 234 229 229
317 313 312 312 311 310 308 306 305 302 301 299 297 293 286 281 276 269 260 246 240 233 221 219 216 214 211 211 213 213 213 213 213 211 210 213 215 218 219 221 221 226 229 232 236 240 240 242 245 244 240 236 234 230
319 317 315 314 313 311 310 308 307 306 305 303 300 292 286 278 271 260 246 231 222 214 211 208 206 202 200 203 205 208 207 204 203 204 203 209 210 213 215 217 219 225 230 232 236 240 244 245 241 239 239 236 232 231
326 323 322 320 318 316 315 314 313 315 314 311 307 300 287 269 247 231 211 203 200 197 195 194 194 192 192 197 198 196 197 197 199 199 200 205 207 209 214 212 213 219 227 232 236 239 233 227 229 234 238 239 237 233
333 331 329 327 324 323 323 323 323 324 324 324 320 314 262 204 191 182 178 181 183 182 181 184 184 181 183 188 190 188 189 192 194 196 196 200 206 209 213 215 215 218 222 229 233 226 210 213 222 230 241 248 245 238
336 336 335 333 331 330 330 331 332 335 338 336 346 23 120 151 163 163 166 165 166 167 170 171 171 172 173 178 179 182 185 188 193 195 195 197 205 208 210 211 218 221 226 229 229 213 200 198 222 235 236 230 237 244
339 342 341 342 342 342 340 342 343 347 356 9 27 59 108 138 148 156 156 157 160 164 163 161 160 164 168 166 167 173 177 183 189 193 194 202 205 207 208 211 217 222 226 226 229 216 203 195 192 189 222 229 219 221
345 347 350 353 357 358 356 357 1 9 25 46 62 76 101 121 132 141 149 154 161 162 157 154 156 155 154 158 162 167 173 181 185 188 194 201 207 205 208 213 218 220 220 216 189 212 203 203 209 210 223 227 224 209
349 352 359 3 4 5 8 13 22 35 47 62 73 84 97 115 125 137 144 150 152 153 152 151 153 153 155 153 158 164 174 182 182 186 193 194 205 204 208 214 220 216 210 201 189 196 212 204 209 208 222 226 223 230
351 357 5 9 10 11 16 24 37 48 59 73 85 95 102 114 125 137 145 152 153 150 152 154 154 152 152 153 156 166 170 178 181 181 188 197 200 200 205 215 212 209 205 200 197 201 211 206 223 213 218 221 223 239
357 4 12 17 18 20 26 36 46 57 68 79 86 91 99 110 121 129 128 140 149 148 152 155 157 157 154 158 157 160 169 178 182 184 189 188 191 196 202 205 208 213 204 205 200 207 213 212 226 227 231 230 229 229
5 14 22 29 32 33 37 46 53 57 67 81 88 96 105 113 121 128 135 141 143 150 152 155 157 155 157 161 163 166 171 182 186 187 196 189 199 200 193 190 203 216 209 207 210 212 215 216 222 226 231 238 236 240
10 21 30 36 40 46 50 54 60 66 68 77 96 105 107 111 117 126 135 142 144 148 157 159 161 163 167 167 169 172 171 174 173 177 179 182 195 196 194 194 208 209 210 212 212 215 222 222 226 232 234 239 242 245
11 22 28 31 34 43 55 65 69 74 75 81 89 103 106 109 114 121 128 138 147 154 160 164 169 171 175 177 182 180 179 181 175 185 192 191 193 200 193 196 206 206 215 222 224 221 221 225 232 232 232 238 245 243
15 26 29 31 33 36 57 62 66 83 93 93 92 101 107 113 115 121 125 128 137 149 161 168 173 178 181 184 189 193 191 187 187 187 190 201 207 210 207 205 211 216 218 222 227 232 233 232 231 233 235 239 246 250
21 31 36 35 37 44 56 60 58 72 84 90 100 105 111 114 121 123 128 129 134 142 151 162 172 182 181 186 190 195 200 197 200 206 210 213 219 217 212 217 219 217 219 225 229 237 239 242 241 242 242 237 241 247
29 36 42 44 48 55 57 65 74 76 82 88 96 105 111 116 120 126 129 133 138 145 150 154 161 173 182 187 193 196 204 210 217 207 206 213 219 223 220 217 220 223 229 226 229 235 241 240 244 250 251 248 249 247
34 39 45 49 56 59 62 69 76 78 80 88 97 102 107 117 123 127 133 140 141 142 146 154 157 164 169 175 185 194 205 216 220 219 218 218 223 222 224 225 227 230 232 229 235 234 241 244 244 246 249 249 250 252
38 42 47 53 59 64 68 72 77 81 84 87 91 98 104 111 120 127 133 137 141 146 145 146 156 165 172 182 187 192 200 206 212 216 220 222 223 223 227 232 234 234 236 233 235 238 243 248 250 256 257 256 260 262
41 44 49 54 59 64 70 74 78 84 86 86 88 95 102 106 116 120 130 140 142 145 153 157 167 176 182 186 191 197 204 212 219 226 229 230 234 236 235 234 234 237 234 233 238 243 247 250 254 258 261 260 259 259
46 48 51 53 58 65 70 75 78 79 84 89 94 96 100 107 111 117 127 135 145 158 170 176 183 194 201 206 215 215 216 217 218 221 226 229 230 231 233 235 237 239 238 238 243 246 249 251 252 254 256 258 261 265
47 49 51 53 57 61 64 69 73 78 82 86 91 96 101 107 115 125 132 141 150 162 174 189 203 213 218 219 224 228 225 226 227 228 230 228 229 231 234 236 238 239 241 244 246 249 252 254 256 257 259 260 262 263
58 58 57 54 55 57 59 64 68 70 70 72 77 84 92 100 106 116 126 136 146 166 187 200 213 224 233 234 237 242 245 243 242 243 242 240 241 242 241 240 240 241 244 246 249 251 253 254 256 257 259 260 261 261
55 56 55 54 59 62 62 61 59 59 60 63 67 68 71 73 83 92 105 124 153 181 196 208 217 226 233 238 242 245 247 249 250 250 250 251 251 251 251 252 253 254 254 255 256 257 258 259 259 261 262 263 263 264
42 42 42 43 45 45 48 51 53 54 56 55 53 48 45 46 49 52 50 39 13 303 259 247 247 248 249 249 249 250 251 253 253 255 256 258 258 258 258 258 258 258 260 260 260 260 260 260 261 261 261 262 263 264
35 34 34 33 31 31 30 29 29 30 30 27 27 26 28 26 22 16 11 2 350 333 322 313 305 294 285 279 276 274 274 272 270 268 269 269 268 267 265 265 266 266 266 266 266 267 268 269 271 272 274 276 278 279
30 32 29 25 24 22 19 16 14 11 6 1 6 8 13 7 349 339 333 325 317 310 304 297 290 287 285 282 281 280 281 279 278 276 275 274 274 275 276 277 276 277 278 278 279 279 280 280 280 280 280 280 279 279
27 25 24 20 15 12 8 2 357 356 355 352 350 349 348 346 335 324 315 309 305 301 298 290 287 285 286 286 284 282 281 281 280 280 279 280 279 279 279 280 280 282 283 283 282 284 284 284 283 282 280 279 278 277
30 26 22 19 14 10 7 1 356 354 353 353 351 348 350 348 343 337 333 327 323 318 313 305 295 288 289 291 293 295 291 291 291 292 291 290 288 287 287 286 286 286 284 283 284 284 283 286 288 286 284 283 282 280
40 39 37 36 32 29 27 24 24 20 13 10 7 356 355 353 347 342 337 332 327 322 318 315 312 309 300 298 298 295 291 287 285 287 288 289 289 289 289 289 290 290 291 291 290 290 289 288 287 286 286 286 286 285
36 33 30 30 29 28 28 25 21 15 11 6 0 353 345 340 337 334 333 332 331 331 330 327 324 319 315 311 309 306 304 301 299 297 296 293 291 288 287 287 287 287 287 287 288 288 288 289 289 289 289 287 286 285
38 37 36 34 30 27 25 22 19 18 13 10 4 360 355 352 351 349 346 343 341 337 334 331 328 327 326 324 321 318 316 313 311 309 306 305 303 302 302 300 299 299 299 298 297 296 295 295 295 295 295 294 294 293
Height
10441 10415 10390 10370 10354 10342 10330 10319 10311 10306 10299 10293 10290 10286 10283 10281 10281 10280 10282 10284 10286 10287 10300 10308 10320 10329 10340 10354 10367 10387 10405 10427 10454 10481 10505 10519 10536 10548 10565 10585 10597 10609 10618 10628 10636 10645 10652 10661 10663 10671 10685 10701 10720 10730
10399 10379 10359 10343 10330 10319 10308 10300 10293 10288 10282 10277 10274 10270 10268 10267 10266 10267 10268 10271 10272 10276 10291 10294 10304 10314 10326 10340 10356 10371 10389 10407 10434 10460 10485 10502 10522 10543 10555 10569 10583 10593 10605 10614 10625 10630 10642 10643 10648 10652 10662 10682 10699 10709
10371 10353 10336 10322 10310 10300 10292 10285 10278 10273 10267 10263 10259 10257 10255 10254 10253 10254 10256 10258 10261 10270 10275 10281 10292 10302 10313 10326 10341 10357 10372 10396 10418 10446 10468 10485 10505 10524 10541 10556 10570 10583 10593 10601 10607 10620 10627 10633 10637 10644 10652 10665 10677 10691
10349 10332 10318 10305 10294 10286 10279 10272 10266 10260 10255 10251 10247 10246 10244 10243 10244 10245 10246 10249 10255 10261 10266 10275 10284 10295 10308 10318 10331 10347 10369 10388 10410 10435 10457 10475 10495 10512 10527 10544 10561 10576 10579 10590 10600 10607 10618 10620 10623 10630 10636 10645 10655 10668
10333 10317 10303 10292 10282 10275 10268 10262 10256 10251 10247 10242 10240 10238 10236 10236 10237 10239 10241 10245 10250 10256 10263 10272 10280 10290 10302 10314 10329 10346 10363 10384 10406 10429 10451 10469 10489 10504 10518 10533 10545 10557 10571 10576 10588 10598 10611 10612 10617 10623 10627 10633 10641 10651
10321 10306 10294 10283 10275 10268 10261 10256 10250 10245 10242 10238 10235 10232 10231 10232 10234 10236 10240 10245 10250 10255 10262 10270 10280 10290 10302 10316 10331 10348 10365 10382 10402 10427 10446 10469 10484 10496 10511 10526 10538 10548 10558 10567 10578 10591 10601 10609 10611 10614 10618 10624 10631 10637
10314 10300 10289 10279 10270 10263 10257 10251 10247 10243 10239 10236 10233 10232 10232 10233 10234 10237 10241 10246 10251 10257 10264 10272 10282 10294 10305 10317 10332 10348 10366 10385 10408 10425 10445 10461 10471 10484 10502 10516 10528 10540 10550 10561 10572 10582 10591 10600 10608 10606 10611 10616 10621 10627
10310 10297 10286 10276 10267 10259 10254 10250 10246 10242 10239 10236 10235 10234 10235 10235 10236 10240 10244 10248 10254 10261 10268 10277 10287 10298 10309 10322 10337 10354 10371 10389 10407 10426 10442 10453 10465 10481 10497 10511 10523 10533 10543 10556 10565 10572 10583 10594 10598 10603 10606 10606 10615 10620
10309 10296 10285 10275 10267 10261 10256 10252 10248 10245 10242 10240 10238 10238 10239 10240 10242 10245 10249 10252 10258 10265 10274 10282 10292 10302 10316 10329 10342 10358 10376 10391 10408 10423 10434 10448 10463 10482 10494 10506 10517 10528 10539 10549 10563 10575 10579 10586 10592 10600 10602 10603 10607 10614
10310 10298 10287 10278 10271 10265 10261 10257 10252 10249 10246 10244 10243 10244 10245 10246 10249 10253 10256 10260 10266 10274 10280 10290 10301 10310 10321 10335 10351 10367 10379 10393 10411 10425 10439 10453 10460 10478 10491 10501 10509 10523 10534 10543 10556 10565 10565 10574 10580 10583 10587 10592 10598 10604
10311 10300 10290 10281 10275 10270 10265 10261 10257 10254 10252 10251 10250 10252 10253 10254 10257 10260 10263 10268 10273 10279 10289 10297 10306 10317 10330 10342 10360 10371 10384 10396 10412 10425 10434 10447 10462 10477 10487 10494 10507 10516 10524 10533 10541 10546 10552 10567 10564 10573 10577 10580 10590 10596
10313 10303 10294 10286 10280 10275 10271 10267 10263 10261 10261 10260 10259 10260 10261 10263 10265 10269 10274 10279 10283 10289 10298 10306 10315 10325 10342 10353 10367 10381 10392 10401 10409 10421 10434 10450 10461 10472 10484 10493 10494 10501 10512 10521 10528 10535 10542 10553 10553 10561 10566 10574 10580 10586
10317 10307 10299 10292 10286 10282 10279 10274 10271 10270 10269 10268 10268 10268 10270 10272 10275 10279 10283 10287 10293 10299 10308 10317 10327 10339 10351 10360 10373 10382 10393 10400 10412 10427 10434 10449 10453 10466 10477 10483 10490 10497 10506 10515 10523 10529 10536 10542 10547 10552 10555 10560 10566 10571
10322 10313 10305 10298 10292 10289 10286 10282 10279 10277 10277 10278 10277 10278 10280 10282 10285 10289 10293 10296 10303 10310 10317 10325 10336 10345 10354 10363 10373 10381 10392 10403 10414 10424 10435 10446 10452 10460 10467 10479 10486 10491 10497 10504 10511 10520 10527 10533 10538 10541 10544 10547 10552 10557
10328 10320 10312 10306 10302 10297 10293 10290 10288 10286 10286 10286 10288 10289 10289 10292 10294 10297 10302 10308 10313 10317 10322 10332 10341 10351 10361 10370 10379 10390 10398 10407 10418 10424 10432 10441 10448 10454 10467 10473 10477 10484 10491 10498 10504 10511 10517 10523 10527 10528 10532 10533 10538 10542
10334 10327 10320 10315 10310 10306 10302 10300 10297 10294 10293 10294 10296 10297 10299 10301 10303 10306 10311 10316 10322 10328 10335 10342 10348 10355 10364 10374 10381 10390 10400 10408 10419 10428 10433 10438 10445 10454 10462 10467 10472 10479 10485 10491 10496 10501 10505 10508 10513 10515 10519 10522 10526 10527
10340 10333 10327 10322 10319 10314 10310 10307 10307 10304 10302 10302 10305 10305 10307 10309 10312 10316 10319 10323 10329 10334 10341 10348 10356 10363 10370 10377 10386 10394 10402 10412 10420 10426 10432 10437 10442 10449 10455 10461 10468 10473 10478 10481 10486 10489 10491 10494 10499 10501 10503 10507 10508 10509
10347 10341 10334 10330 10326 10321 10319 10317 10315 10312 10311 10312 10313 10314 10316 10318 10322 10325 10328 10332 10336 10341 10347 10352 10359 10368 10376 10383 10390 10398 10404 10410 10416 10424 10431 10435 10441 10445 10450 10456 10461 10465 10467 10470 10473 10475 10478 10479 10482 10484 10486 10487 10488 10491
10356 10349 10343 10339 10334 10330 10328 10326 10324 10322 10322 10322 10322 10324 10325 10327 10331 10334 10337 10341 10345 10349 10355 10361 10367 10373 10380 10386 10394 10401 10407 10412 10417 10421 10426 10430 10434 10439 10442 10447 10451 10453 10456 10458 10460 10462 10465 10465 10468 10469 10471 10473 10474 10475
10365 10358 10353 10348 10344 10340 10337 10335 10334 10332 10332 10332 10333 10334 10335 10337 10339 10342 10346 10350 10355 10359 10363 10369 10374 10380 10386 10391 10396 10400 10405 10410 10415 10419 10422 10425 10427 10430 10434 10436 10438 10440 10443 10445 10447 10450 10450 10452 10454 10455 10455 10457 10458 10458
10375 10368 10362 10357 10353 10350 10347 10345 10344 10343 10342 10343 10343 10344 10345 10347 10350 10352 10356 10359 10363 10367 10371 10375 10379 10384 10389 10394 10398 10401 10404 10407 10409 10411 10413 10415 10417 10419 10420 10422 10424 10427 10430 10432 10434 10435 10437 10438 10439 10439 10438 10437 10437 10436
10387 10379 10373 10369 10364 10360 10358 10356 10355 10353 10352 10352 10353 10354 10355 10357 10359 10362 10364 10367 10370 10373 10377 10380 10384 10387 10389 10391 10393 10396 10398 10399 10401 10403 10404 10406 10406 10408 10410 10412 10413 10415 10416 10418 10419 10419 10420 10420 10419 10419 10419 10418 10417 10416
10398 10392 10386 10380 10375 10372 10370 10367 10365 10363 10363 10362 10362 10362 10363 10365 10367 10368 10369 10372 10374 10376 10378 10381 10383 10385 10386 10388 10388 10389 10391 10392 10393 10394 10395 10395 10395 10396 10397 10398 10398 10399 10399 10400 10401 10401 10400 10400 10399 10398 10397 10395 10394 10392
10410 10403 10398 10395 10391 10386 10382 10379 10376 10373 10372 10372 10371 10371 10371 10371 10372 10372 10373 10374 10376 10377 10378 10379 10380 10381 10382 10383 10383 10383 10383 10383 10383 10384 10384 10383 10383 10383 10383 10383 10384 10383 10383 10383 10382 10381 10380 10379 10377 10375 10374 10373 10372 10370
10417 10414 10411 10407 10402 10398 10395 10392 10390 10387 10385 10383 10380 10379 10379 10378 10378 10377 10377 10377 10377 10376 10376 10376 10376 10376 10376 10376 10376 10376 10375 10374 10372 10371 10370 10369 10368 10367 10367 10366 10366 10365 10364 10362 10361 10360 10359 10357 10355 10353 10350 10349 10346 10344
10425 10422 10419 10415 10411 10407 10404 10401 10398 10396 10394 10392 10391 10390 10389 10387 10385 10383 10382 10380 10379 10377 10376 10375 10374 10373 10372 10370 10368 10366 10364 10362 10360 10358 10357 10356 10354 10353 10351 10349 10347 10345 10342 10340 10338 10336 10335 10332 10330 10327 10323 10321 10320 10317
10431 10428 10425 10420 10416 10413 10410 10407 10404 10402 10399 10396 10395 10393 10391 10390 10388 10387 10385 10383 10382 10379 10377 10375 10373 10370 10368 10365 10362 10360 10358 10355 10353 10350 10348 10345 10342 10339 10336 10334 10332 10330 10327 10324 10321 10319 10316 10314 10312 10310 10307 10304 10302 10301
10436 10432 10428 10424 10420 10417 10414 10411 10408 10405 10402 10400 10397 10395 10393 10391 10388 10385 10383 10380 10378 10375 10372 10368 10365 10362 10359 10356 10353 10350 10347 10344 10341 10337 10333 10330 10327 10324 10320 10318 10315 10312 10309 10308 10303 10301 10298 10294 10291 10288 10285 10282 10279 10276
10438 10435 10430 10426 10423 10419 10416 10412 10409 10407 10404 10401 10397 10394 10390 10387 10384 10380 10376 10372 10369 10365 10363 10360 10356 10351 10346 10341 10338 10336 10331 10327 10323 10320 10316 10313 10310 10307 10303 10300 10296 10292 10288 10284 10283 10278 10272 10269 10267 10263 10260 10256 10252 10250
10442 10438 10433 10428 10423 10419 10415 10411 10407 10404 10401 10399 10395 10391 10388 10384 10380 10376 10371 10366 10362 10358 10353 10349 10345 10341 10336 10332 10328 10324 10318 10313 10308 10303 10299 10295 10290 10286 10282 10278 10273 10269 10265 10261 10256 10254 10252 10243 10240 10238 10234 10230 10227 10224
10447 10442 10436 10431 10427 10423 10419 10414 10410 10406 10402 10399 10395 10391 10386 10381 10376 10371 10365 10360 10355 10350 10345 10340 10336 10331 10327 10321 10315 10310 10306 10300 10294 10288 10282 10277 10272 10266 10261 10256 10250 10246 10241 10236 10231 10228 10224 10221 10218 10215 10211 10207 10203 10199
10449 10444 10441 10437 10433 10428 10424 10419 10414 10410 10405 10400 10395 10390 10384 10378 10372 10366 10360 10354 10348 10342 10336 10330 10324 10318 10312 10307 10301 10294 10288 10281 10276 10271 10265 10260 10255 10251 10246 10241 10236 10231 10225 10220 10215 10211 10206 10202 10198 10195 10191 10188 10185 10182
10457 10452 10448 10442 10437 10432 10427 10421 10416 10410 10405 10399 10393 10386 10379 10372 10366 10360 10353 10347 10342 10335 10328 10320 10313 10306 10299 10292 10285 10279 10273 10268 10261 10256 10251 10245 10239 10233 10228 10222 10217 10213 10208 10204 10199 10194 10190 10185 10181 10177 10172 10169 10166 10162